Regional Weather Roundup
Issued by NWS Pendleton, OR

Home | Current Version | Previous Version | Text Only | Print | Product List | Glossary On
Versions: 1 2 3 4 5 6 7 8 9 10 11 12 13 14 15 16 17 18 19 20 21 22 23 24 25 26 27 28 29 30 31 32 33 34 35 36 37 38 39 40 41 42 43 44 45 46 47 48 49 50
000
ASUS46 KPDT 281625
RWRPDT
PENDLETON REGIONAL WEATHER ROUNDUP
NATIONAL WEATHER SERVICE PENDLETON OREGON
800 AM PST SAT FEB 28 2015

NOTE: FAIR INDICATES FEW OR NO CLOUDS BELOW 12,000 FEET WITH NO
SIGNIFICANT WEATHER AND/OR OBSTRUCTIONS TO VISIBILITY.

# INDICATES UNOFFICIAL STATION AND DATA

WAZ520-281710-
EAST SLOPES OF WASHINGTON CASCADES

CITY            SKY/WX      TMP DP  RH  WIND    PRES   REMARKS
#CLE ELUM HS    N/A         30  28  92  CALM    30.05R
#CLE ELUM LAKE  N/A         30  23  75  CALM    30.14R
#CLIFFDEL 2NW   N/A         28  24  85  CALM    N/A
#GLENWOOD       N/A         37  24  59  NE3     30.11R
#MANASTASH CYN  N/A         32  29  89  CALM    30.05R
#NELSON         N/A         27  26  96  CALM    30.19R
#NELSON 3SW     N/A         30  24  78  CALM    30.36R
#NILE           N/A         27  26  96  CALM    29.41R
#RONALD 2NW     N/A         30  12  46  CALM    29.95R
#SNOWDEN        N/A         34   9  35  E3      N/A
#TEANAWAY 4NE   N/A         32  24  72  NW2     N/A
#TROUT LAKE 1NE N/A         39  20  46  SW7     30.08R
$$

WAZ521-281710-
SIMCOE HIGHLANDS

CITY            SKY/WX      TMP DP  RH  WIND    PRES   REMARKS
#BICKLETON HS   N/A         31  12  45  NE16G24 N/A    WCI 20
#CENTERVILLE 1SWN/A         37  23  56  E5      30.09R
#GOLDENDALE 1NE N/A         39  12  32  NE7     N/A
#GOLDENDALE 5WNWN/A         40  22  48  E1      30.09R
#GOODNOE HILLS  N/A         40  21  46  NE10    N/A
#LYLE 6NE       N/A         39  27  62  CALM    30.08R
$$

WAZ026-281710-
KITTITAS VALLEY

CITY            SKY/WX      TMP DP  RH  WIND    PRES   REMARKS
ELLENSBURG AP   SUNNY       43  16  33  N6      30.09R
#ELLENSBURG CWU N/A         40  18  41  W1      30.08R
#ELLENSBURG 3NE N/A         38  20  48  E6      30.09R
#ELLENSBURG 1E  N/A         35  21  56  CALM    N/A
#KITTITAS 4N    N/A         39  18  42  SE6     28.40R
#KITTITAS 3S    N/A         40  21  46  NE15G24 30.12R WCI 32
#THORP 6N       N/A         38  17  42  CALM    30.16R
$$

WAZ027-281710-
YAKIMA VALLEY

CITY            SKY/WX      TMP DP  RH  WIND    PRES   REMARKS
SUNNYSIDE AP    SUNNY       39  20  46  N24G33  30.10R WCI 28
YAKIMA AIRPORT  SUNNY       45  17  32  N18     30.12R WCI 37
YAKIMA-VAGABOND SUNNY       41  16  36  E15G29  30.11R WCI 33
#DONALD 2NE     N/A         46  10  23  CALM    28.98R
#MABTON         N/A         42  19  39  N6      30.14R
#NACHES 2SW     N/A         40  21  46  W1      30.07R
#OUTLOOK DOT    N/A         N/A N/A N/A N12     N/A
#SELAH 8E       N/A         37  16  42  NE15G29 N/A    WCI 28
#TERRACE HTS    N/A         39  20  46  CALM    30.12R
#TOPPENISH      N/A         43  21  41  NE5     30.07R
#WAPATO 4NE     N/A         46  10  23  CALM    28.98R
#WEST VALLEY    N/A         42  20  41  N3      30.14R
#W YAKIMA       N/A         43  20  39  NE2     30.16R
#WHITE SWAN 5E  N/A         42  25  51  NE6     30.17R
#WILEY CITY 3W  N/A         40  11  30  CALM    30.12R
$$

WAZ028-281710-
LOWER COLUMBIA BASIN...WASHINGTON

CITY            SKY/WX      TMP DP  RH  WIND    PRES   REMARKS
HANFORD         SUNNY       39  23  52  NE6     30.13R
PASCO           SUNNY       38  15  38  N13     30.11R WCI 30
PROSSER AWOS    N/A         41  18  39  N14     30.16R WCI 33
RICHLAND AWOS   SUNNY       39  16  39  N10     30.13R
#BASIN CITY 5SW N/A         37  17  44  N14G25  30.11R WCI 28
#BENTON CITY    N/A         38  19  46  N7      30.04
#CONNELL 5N     N/A         36  13  38  N15     30.11R WCI 27
#CONNELL 5NW    N/A         36  14  40  N15     30.08R WCI 27
#ELTOPIA        N/A         40  16  37  N13     30.07R WCI 32
#ELTOPIA 6NW    N/A         37  15  40  N22G31  29.06R WCI 26
#KAHLOTUS       N/A         34  14  43  E22G38  30.09R WCI 22
#KENNEWICK 3S   N/A         36  16  44  CALM    30.11R
#PASCO-BROADMOORN/A         37  10  32  E6      30.03R
#PATERSON       N/A         39  18  42  NE15G25 30.10R WCI 31
#PROSSER        N/A         38  12  34  NE3     30.14R
#SAGEMOOR 2W    N/A         38  15  38  S13     29.96R WCI 30
#TOUCHET 2S     N/A         37  20  50  NW1     30.08R
#WEST PASCO     N/A         38  16  40  NE7     30.06R
$$

WAZ029-281710-
FOOTHILLS OF THE BLUES...WASHINGTON

CITY            SKY/WX      TMP DP  RH  WIND    PRES   REMARKS
WALLA WALLA AP  PTCLDY      36  22  56  NE9     30.01R
#DAYTON SCHOOL  N/A         33  13  43  N7      30.02R
#LOWDEN 2SE     N/A         38  23  54  E2      30.03R
#PLEASANT VIEW 1N/A         32  15  49  N7      30.12R
#PRESCOTT       N/A         36  20  52  N16G24  30.04R WCI 26
#SUDBURY        N/A         39  N/A N/A CALM    N/A
#WHITMAN COLLEGEN/A         36  23  59  N5      30.09R
#WAITSBURG 5S   N/A         32  20  61  NE13    30.13R WCI 22
#WAITSBURG 8N   N/A         34   2  25  N16     29.88R WCI 24
#WALLA WALLA 5E N/A         31  26  81  CALM    N/A
#WALLA WALLA U  N/A         38  24  57  CALM    30.06R
#WHITMAN MISSIONN/A         36  25  64  N1      30.08R
$$

WAZ030-281710-
BLUE MOUNTAINS...WASHINGTON

CITY            SKY/WX      TMP DP  RH  WIND    PRES   REMARKS
#DIXIE 5SE      N/A         27  22  81  CALM    29.87R
#SKI BLUEWOOD   N/A         21  18  88  CALM    29.86R
$$

ORZ009-041-WAZ024-281710-
COLUMBIA RIVER GORGE

CITY            SKY/WX      TMP DP  RH  WIND    PRES   REMARKS
HOOD RIVER AP   PTCLDY      37  32  82  CALM    30.11R
THE DALLES AP   SUNNY       38  36  92  SW3     30.12R
#ARLINGTON AIRPON/A         40  20  44  NE18    30.00F WCI 31
#ARLINGTON HS   N/A         42  18  38  SW12    30.06R WCI 35
#CELILO DOT     N/A         44  19  36  NE6     N/A
#MOSIER 1S      N/A         35  27  72  S3      30.09R
#MURDOCK        N/A         42  38  86  CALM    30.15R
#RUFUS DOT      N/A         N/A N/A N/A CALM    N/A

$$

ORZ510-281710-
NORTH CENTRAL OREGON

CITY            SKY/WX      TMP DP  RH  WIND    PRES   REMARKS
#CHENOWITH 1W   N/A         36  27  69  S3      N/A
#COW CYN RST AREN/A         31  14  49  NE12G24 N/A    WCI 22
#DUFUR 9E       N/A         34  21  58  NE18    30.15R WCI 23
#GRASS VALLEY 1SN/A         32  21  63  NE22G29 30.13R WCI 19
#KENT DOT       N/A         32   8  36  NE21    N/A    WCI 20
#MAUPIN SCHOOL  N/A         39  23  52  N5      30.10R
#MORO SCHOOL    N/A         34  27  75  NE7     30.07R
#SHANIKO 5WSW   N/A         27   8  44  N29     N/A    WCI 11
#SHANIKO 4NW    N/A         26  15  63  NE29G37 29.94R WCI 10
#TYGH VALLEY 2NEN/A         38  26  62  CALM    30.11R
#WAPANITIA AIRPON/A         36  25  64  NE6     30.12R
#WASCO DOT      N/A         37  24  59  E5      N/A
#WASCO 5NE      N/A         37  24  59  NE3     30.12R
$$

ORZ511-281710-
CENTRAL OREGON

CITY            SKY/WX      TMP DP  RH  WIND    PRES   REMARKS
BEND AIRPORT    MOCLDY      28  19  68  N13     29.97R WCI 17
MADRAS AIRPORT  PTCLDY      32  19  58  N16     30.03R WCI 21
PRINEVILLE AP   MOCLDY      32  19  58  N20     29.96R WCI 20
REDMOND AIRPORT CLOUDY      30  20  66  N12     29.97R WCI 20
#BEND 6E        N/A         28  18  66  CALM    30.08R
#BEND 1SW       N/A         26  23  88  N1      N/A
#BEND-AWBREY    N/A         26  24  92  N3      30.06R
#BEND-KIM LN    N/A         28  24  85  N3      29.93R
#CULVER         N/A         30  19  63  N7      29.98R
#LAKE BILLY CHINN/A         33  -12 13  NE6     30.16R
#POWELL BUTTE   N/A         29  22  75  N5      29.59R
#PRINEVILLE 3N  N/A         32  22  66  N12     29.93S WCI 23
#WARM SPRINGS   N/A         39  18  42  NW9     30.03R

$$


ORZ509-281710-
EAST SLOPES OF OREGON CASCADES

CITY            SKY/WX      TMP DP  RH  WIND    PRES   REMARKS
#BLUE BOX PASS  N/A         26  -21 11  CALM    N/A
#CAMP SHERMAN   N/A         30  20  66  CALM    30.12R
#LA PINE DOT    N/A         24  21  88  N15G26  N/A    WCI 11
#LA PINE 4NW    N/A         24  20  84  N5      30.01R
#LAVA BUTTE DOT N/A         22  20  92  N2      N/A
#MT BACHELOR-MIDN/A         10   7  87  MISG    N/A
#SISTERS AIRPOR N/A         30  22  72  N1      30.17S
#SISTERS ODOT   N/A         31  N/A N/A CALM    N/A
#SISTERS 3N     N/A         29  15  55  CALM    30.01R
#SUNRIVER       N/A         25  22  88  N3      29.88R
#TUMALO 3W      N/A         25  22  88  NW8     29.96R
#WANOGA BUTTE D N/A         17  11  77  NE17G30 N/A    WCI  1

$$

ORZ044-281710-
LOWER COLUMBIA BASIN...OREGON

CITY            SKY/WX      TMP DP  RH  WIND    PRES   REMARKS
HERMISTON       SUNNY       38  14  37  N12     30.09R WCI 30
#BOARDMAN 8SW   N/A         39  24  54  N12     30.13R WCI 32
#ECHO 8SW       N/A         37  18  46  N1      30.07R
#IONE SCHOOL    N/A         36  22  56  CALM    30.09R
#IRRIGON 4NW    N/A         41  19  41  N9      N/A
#UMATILLA SCHOOLN/A         37  21  52  N7      30.11R
#UMATILLA       N/A         40  15  36  N13     30.09R WCI 32
$$

ORZ507-281710-
NORTHERN FOOTHILLS OF THE BLUES

CITY            SKY/WX      TMP DP  RH  WIND    PRES   REMARKS
PENDLETON AIRPT PTCLDY      33  19  56  W6      30.02R
#ADAMS 3WNW     N/A         33  21  61  N1      30.06R
#ATHENA         N/A         32  22  66  CALM    30.06R
#HELIX SCHOOL   N/A         32  19  58  N12     30.04R WCI 23
#HELIX 3N       N/A         32  19  58  N15     29.97R WCI 22
#HOLDMAN 6E     N/A         31  18  58  S9      29.87R
#M-F FERNDALE   N/A         32  24  72  CALM    30.01R
#M-F GROVE ELEM N/A         32  20  61  W1      30.00R
#M-FREEWATER 5SEN/A         33  23  66  SW3     30.01R
#PENDLETON DNTN N/A         33  25  72  CALM    30.05R
#PDT AQUATIC CTRN/A         35  25  66  CALM    30.04R
#PENDLETON 5NE  N/A         33  22  63  CALM    29.99R
#PDT SUNRIDGE   N/A         33  23  66  CALM    30.05R
#PENDLETON 7NW  N/A         37  23  56  CALM    N/A
#PILOT ROCK     N/A         33  21  61  W5      30.04R
#TUTUILLA       N/A         32  24  72  W7      30.06R
#UMAPINE 2E     N/A         35  27  72  CALM    30.01R
#WESTON SCHOOL  N/A         31  17  56  CALM    30.00R

$$

ORZ508-281710-
SOUTHERN FOOTHILLS OF THE BLUES

CITY            SKY/WX      TMP DP  RH  WIND    PRES   REMARKS
LEXINGTON       PTCLDY      34  23  64  N9      30.08R
#AJAX           N/A         32  13  45  N18G28  29.95R WCI 21
#CONDON SCHOOL  N/A         29  21  72  CALM    29.96R
#CONDON 5W      N/A         26  16  65  N22G33  29.93R WCI 12
#FOSSIL SCHOOL  N/A         28  20  71  NE1     29.98R
#HEPPNER EOC    N/A         31  23  72  CALM    30.05R
#HEPPNER 4NE    N/A         29  20  69  N1      30.09R
#LEXINGTON 2SE  N/A         34  22  61  N3      30.04R
#MIKKALO        N/A         37  20  50  NE7     30.07R
#OLEX 4N        N/A         36  23  59  NE12    30.07R WCI 28
#RUGGS 5NE      N/A         28  16  60  VRB9    30.14R
#RUGGS 2SW      N/A         27  19  71  N5      30.11R

$$

ORZ502-503-281710-
BLUE MOUNTAINS

CITY            SKY/WX      TMP DP  RH  WIND    PRES   REMARKS
MEACHAM         PTCLDY      25  20  81  VRB5    29.90R
#BATTLE MTN DOT N/A         18  18  100 NW3     N/A
#HEPPNER 15SE   N/A         20  18  92  CALM    29.83R
#LADD CYN SMT   N/A         33  20  58  NW15    N/A    WCI 23
#LADD CREEK ODOTN/A         34  12  40  NE8     N/A
#LONG CREEK HS  N/A         26  26  100 CALM    29.87R
#N POWDER DOT   N/A         34  26  72  N16     N/A    WCI 24
#PIKES PEAK     N/A         27  25  92  CALM    27.99S
#TOLLGATE       N/A         26  25  96  N1      29.83R
#TROY SCHOOL    N/A         28  26  92  CALM    29.88R
#UKIAH          N/A         25  19  78  NW13    30.08R WCI 13
#WESTON 4E      N/A         26  23  88  S3      29.96R
$$

ORZ505-281710-
JOHN DAY BASIN

CITY            SKY/WX      TMP DP  RH  WIND    PRES   REMARKS
JOHN DAY        MOCLDY      32  28  85  NW6     29.87R
#JOHN DAY KJDY  N/A         35  30  82  NW6     29.92F
#MITCHELL       N/A         27  27  100 CALM    30.12R
#MONUMENT HS    N/A         34  22  61  N2      29.98R
#MT. VERNON 5SE N/A         30  27  88  CALM    29.81R
#SPRAY SCHOOL   N/A         36  N/A N/A CALM    N/A
#WINLOCK        N/A         29  20  69  NE7     30.03R
$$

ORZ506-281710-
OCHOCO AND JOHN DAY HIGHLANDS

CITY            SKY/WX      TMP DP  RH  WIND    PRES   REMARKS
#BUCK CREEK DOT N/A         30  30  100 NW16    N/A    WCI 19
#HORSE RIDGE DO N/A         24  22  92  NW13    N/A    WCI 12
#PAULINA SCHOOL N/A         29  22  75  N1      29.85R
#PINE MTN OBS   N/A         17  15  92  N7      N/A
#PRAIRIE CITY   N/A         31  30  96  CALM    30.01R
#SENECA 9NW     N/A         29  27  92  CALM    29.88R
$$

ORZ049-281710-
GRANDE RONDE VALLEY

CITY            SKY/WX      TMP DP  RH  WIND    PRES   REMARKS
LA GRANDE       PTCLDY      36  21  54  NW14    29.91R WCI 27
#COVE           N/A         33  29  85  E2      29.90R
#COVE SCHOOL    N/A         34  28  78  CALM    29.87R
#ELGIN 1E       N/A         33  24  69  CALM    N/A
#IMBLER SCHOOL  N/A         36  19  50  N10     29.89R
#ISLAND CITY 4N N/A         38  37  96  CALM    30.05R
#LADD CYN DOT   N/A         35  22  59  NW10    N/A
#UNION 1S       N/A         35  26  69  W3      29.86R
$$

ORZ050-281710-
WALLOWA COUNTY

CITY            SKY/WX      TMP DP  RH  WIND    PRES   REMARKS
JOSEPH AIRPORT  CLOUDY      30  23  75  N5      29.89R
#ENTERPRISE HS  N/A         30  23  75  CALM    29.92R
#IMNAHA SCHOOL  N/A         34  25  69  N2      29.96R
#IMNAHA 10S     N/A         30  25  81  CALM    29.91R
#JOSEPH 3N      N/A         29  24  81  CALM    29.91R
#JOSEPH 3W      N/A         29  21  72  CALM    29.72R
#LOSTINE        N/A         30  26  85  CALM    29.79R
#MT HOWARD 8000 N/A         18  16  92  CALM    29.69R
#PROMISE 1S     N/A         28  17  63  W3      30.11R
#SHEEP RDG 7000 N/A         20  18  92  CALM    29.98R
#WALLOWA SCHOOL N/A         30  23  75  CALM    30.97R



$$



USA.gov is the U.S. government's official web portal to all federal, state and local government web resources and services.